FW0428 Weather Reports


time (UTC)temp
F
wind
direction
speed
knots
gust
knots
rain 1hr
in
rain 24hr
in
rain mn
in
humidity
%
barometer
mb
20210723141550 80 247 0.0 4.3 0.00 0.00 0.00 85 1019.8
20210723110003 74 174 0.0 0.0 0.00 0.00 0.00 92 1018.8
20210723093040 75 230 0.0 0.9 0.00 0.00 0.00 89 1018.4
20210723080103 76 225 0.0 3.5 0.00 0.00 0.00 88 1018.2
20210723073047 76 265 2.6 4.3 0.00 0.00 0.00 88 1018.3
20210723071522 77 221 0.0 2.6 0.00 0.00 0.00 88 1018.2
20210723070140 77 214 0.0 2.6 0.00 0.00 0.00 87 1018.1
20210723064553 77 239 0.9 2.6 0.00 0.00 0.00 87 1018.1
20210723063117 77 239 0.9 3.5 0.00 0.00 0.00 86 1018.1
20210723061553 78 240 0.9 5.2 0.00 0.00 0.00 86 1018.0
20210723060103 78 234 0.0 5.2 0.00 0.00 0.00 85 1018.1
20210723054628 78 241 0.9 4.3 0.00 0.00 0.00 84 1018.1
20210723053206 79 205 0.9 4.3 0.00 0.00 0.00 84 1018.1
20210723051729 79 215 1.7 6.1 0.00 0.00 0.00 84 1018.0
20210723044600 80 242 0.9 5.2 0.00 0.00 0.00 82 1017.9
20210723010222 87 226 0.0 3.5 0.00 0.00 0.00 65 1017.2
20210722224553 90 142 0.0 8.7 0.00 0.00 0.00 58 1016.5
20210722223033 90 192 0.0 3.5 0.00 0.00 0.00 58 1016.7
20210722221529 90 246 0.9 4.3 0.00 0.00 0.00 58 1016.6
20210722220001 91 262 0.0 1.7 0.00 0.00 0.00 58 1016.7
20210722194608 89 257 0.0 4.3 0.00 0.00 0.00 59 1018.1
20210722184609 87 216 0.9 6.1 0.00 0.00 0.00 66 1018.6
20210722174513 85 313 0.9 5.2 0.00 0.00 0.00 69 1019.1
20210722173211 85 194 0.0 2.6 0.00 0.00 0.00 70 1019.2
20210722171544 86 246 0.9 3.5 0.00 0.00 0.00 69 1019.3
20210722161541 83 115 0.0 4.3 0.00 0.00 0.00 76 1019.4